Location: Hohenfelde
(53.8441°N, 9.6220°E)
Time: 10:36:47
(UTC+00:00)

Cosmos 2016 Rocket - Pass Details

Date: 14 July 2020
Orbit: 948 x 999 km, 83.0° (Epoch: 12 August)

Event Time Altitude Azimuth Distance (km) Brightness Sun altitude
Exits shadow 01:53:41 10° 208° (SSW) 2,711 5.7 -8.2°
Reaches altitude 10° 01:53:45 10° 208° (SSW) 2,688 5.6 -8.2°
Maximum altitude 01:59:47 57° 287° (WNW) 1,136 4.3 -7.7°
Drops below altitude 10° 02:05:58 10° 5° (N) 2,740 7.4 -7.2°
Sets 02:08:34 0° 10° (N) 3,700 8.3 -6.9°
